When you browse on this site, cookies collect data to enhance your experience and personalize the content and advertising you see.
Visit our Privacy Policy to learn more. By continuing to use the site, you agree to this use of cookies and data.
  • In Portugal
  • List of Countries
  • For 7 days
  • Water Temperature
  • Satellite Maps
  • Weather Map
  • Weather Widgets
  • user-avatar
    Login

    Hourly Weather Kavasaki

    Today, 21 April, Sunday

    Time Temperature Precipitation Wind Pressure Humidity
    00:00 +15°C° 0 mm 1 mps 755 mmHg 79%
    01:00 +14°C° 0 mm 1 mps 755 mmHg 79%
    02:00 +14°C° 0 mm 1 mps 755 mmHg 79%
    03:00 +13°C° 0 mm 1 mps 754 mmHg 79%
    04:00 +13°C° 0 mm 1 mps 754 mmHg 76%
    05:00 +13°C° 0 mm 1 mps 754 mmHg 74%
    06:00 +13°C° 0 mm 1 mps 755 mmHg 71%
    07:00 +16°C° 0 mm 1 mps 754 mmHg 66%
    08:00 +19°C° 0 mm 1 mps 754 mmHg 60%
    09:00 +19°C° 0 mm 0 mps 754 mmHg 55%
    10:00 +22°C° 0 mm 1 mps 754 mmHg 53%
    11:00 +24°C° 0 mm 1 mps 754 mmHg 50%
    12:00 +25°C° 0 mm 2 mps 753 mmHg 48%
    13:00 +25°C° 0 mm 2 mps 753 mmHg 47%
    14:00 +26°C° 0 mm 2 mps 753 mmHg 46%
    15:00 +26°C° 0 mm 2 mps 753 mmHg 45%
    16:00 +25°C° 0 mm 1 mps 753 mmHg 48%
    17:00 +24°C° 0 mm 1 mps 753 mmHg 51%
    18:00 +24°C° 0 mm 1 mps 753 mmHg 54%
    19:00 +23°C° 0 mm 1 mps 753 mmHg 59%
    20:00 +22°C° 0 mm 1 mps 754 mmHg 64%
    21:00 +21°C° 0 mm 1 mps 754 mmHg 69%
    22:00 +20°C° 0 mm 1 mps 754 mmHg 70%
    23:00 +20°C° 0 mm 1 mps 754 mmHg 72%

    Tomorrow, 22 April, Monday

    Time Temperature Precipitation Wind Pressure Humidity
    00:00 +20°C° 0 mm 1 mps 754 mmHg 74%
    01:00 +19°C° 0 mm 1 mps 754 mmHg 73%
    02:00 +19°C° 0 mm 1 mps 754 mmHg 73%
    03:00 +19°C° 0 mm 1 mps 754 mmHg 73%
    04:00 +19°C° 0 mm 1 mps 754 mmHg 73%
    05:00 +18°C° 0 mm 1 mps 754 mmHg 74%
    06:00 +18°C° 0 mm 1 mps 754 mmHg 74%
    07:00 +20°C° 0 mm 1 mps 755 mmHg 68%
    08:00 +22°C° 0 mm 1 mps 755 mmHg 61%
    09:00 +23°C° 0 mm 2 mps 755 mmHg 54%
    10:00 +25°C° 0 mm 2 mps 755 mmHg 49%
    11:00 +26°C° 0 mm 2 mps 755 mmHg 44%
    12:00 +27°C° 0 mm 2 mps 755 mmHg 39%
    13:00 +28°C° 0 mm 2 mps 755 mmHg 37%
    14:00 +28°C° 0 mm 3 mps 755 mmHg 35%
    15:00 +28°C° 0 mm 3 mps 754 mmHg 33%
    16:00 +27°C° 0 mm 3 mps 755 mmHg 38%
    17:00 +26°C° 0 mm 3 mps 755 mmHg 43%
    18:00 +24°C° 0 mm 3 mps 755 mmHg 48%
    19:00 +22°C° 0 mm 3 mps 756 mmHg 52%
    20:00 +20°C° 0 mm 3 mps 756 mmHg 55%
    21:00 +19°C° 0 mm 2 mps 757 mmHg 59%
    22:00 +18°C° 0 mm 2 mps 757 mmHg 59%
    23:00 +17°C° 0 mm 2 mps 758 mmHg 60%

    Day after tomorrow, 23 April, Tuesday

    Time Temperature Precipitation Wind Pressure Humidity
    00:00 +18°C° 0 mm 1 mps 758 mmHg 60%
    01:00 +16°C° 0 mm 1 mps 758 mmHg 60%
    02:00 +16°C° 0 mm 1 mps 758 mmHg 60%
    03:00 +16°C° 0 mm 1 mps 758 mmHg 60%
    04:00 +16°C° 0 mm 1 mps 758 mmHg 61%
    05:00 +16°C° 0 mm 1 mps 758 mmHg 61%
    06:00 +18°C° 0 mm 1 mps 759 mmHg 62%
    07:00 +18°C° 0.1 mm 1 mps 759 mmHg 64%
    08:00 +19°C° 0.1 mm 1 mps 759 mmHg 67%
    09:00 +20°C° 0.1 mm 1 mps 759 mmHg 69%
    10:00 +20°C° 0 mm 1 mps 759 mmHg 68%
    11:00 +21°C° 0 mm 1 mps 759 mmHg 67%
    12:00 +21°C° 0 mm 2 mps 759 mmHg 67%
    13:00 +21°C° 0 mm 2 mps 759 mmHg 64%
    14:00 +23°C° 0 mm 2 mps 758 mmHg 61%
    15:00 +23°C° 0 mm 2 mps 758 mmHg 58%
    16:00 +23°C° 0 mm 2 mps 758 mmHg 60%
    17:00 +21°C° 0 mm 2 mps 758 mmHg 62%
    18:00 +20°C° 0 mm 2 mps 759 mmHg 65%
    19:00 +20°C° 0 mm 2 mps 759 mmHg 67%
    20:00 +20°C° 0 mm 1 mps 759 mmHg 69%
    21:00 +20°C° 0 mm 1 mps 760 mmHg 71%
    22:00 +20°C° 0 mm 1 mps 760 mmHg 72%
    23:00 +20°C° 0 mm 1 mps 760 mmHg 73%

    24 April, Wednesday

    Time Temperature Precipitation Wind Pressure Humidity
    00:00 +19°C° 0 mm 1 mps 759 mmHg 74%
    01:00 +19°C° 0 mm 1 mps 759 mmHg 75%
    02:00 +19°C° 0 mm 1 mps 759 mmHg 75%
    03:00 +19°C° 0 mm 1 mps 759 mmHg 76%
    04:00 +19°C° 0.1 mm 1 mps 759 mmHg 76%
    05:00 +19°C° 0.1 mm 1 mps 759 mmHg 76%
    06:00 +19°C° 0.1 mm 1 mps 759 mmHg 76%
    07:00 +19°C° 0.1 mm 1 mps 758 mmHg 74%
    08:00 +20°C° 0.1 mm 1 mps 758 mmHg 73%
    09:00 +21°C° 0.1 mm 1 mps 758 mmHg 71%
    10:00 +21°C° 0.3 mm 2 mps 758 mmHg 70%
    11:00 +21°C° 0.3 mm 2 mps 757 mmHg 69%
    12:00 +22°C° 0.3 mm 3 mps 757 mmHg 68%
    13:00 +22°C° 0.9 mm 3 mps 756 mmHg 67%
    14:00 +22°C° 0.9 mm 4 mps 756 mmHg 67%
    15:00 +22°C° 0.9 mm 4 mps 756 mmHg 66%
    16:00 +21°C° 0.3 mm 4 mps 755 mmHg 69%
    17:00 +20°C° 0.3 mm 3 mps 755 mmHg 71%
    18:00 +19°C° 0.3 mm 3 mps 755 mmHg 74%
    19:00 +19°C° 0.3 mm 3 mps 755 mmHg 74%
    20:00 +18°C° 0.3 mm 2 mps 755 mmHg 75%
    21:00 +18°C° 0.3 mm 2 mps 755 mmHg 76%
    22:00 +18°C° 0.7 mm 2 mps 754 mmHg 78%
    23:00 +18°C° 0.7 mm 2 mps 754 mmHg 79%

    25 April, Thursday

    Time Temperature Precipitation Wind Pressure Humidity
    00:00 +17°C° 0.7 mm 2 mps 753 mmHg 80%
    01:00 +17°C° 1.7 mm 2 mps 752 mmHg 82%
    02:00 +17°C° 1.7 mm 2 mps 752 mmHg 83%
    03:00 +17°C° 1.7 mm 2 mps 751 mmHg 85%
    04:00 +17°C° 1.9 mm 2 mps 751 mmHg 85%
    05:00 +17°C° 1.9 mm 2 mps 751 mmHg 86%
    06:00 +17°C° 1.9 mm 2 mps 750 mmHg 87%
    07:00 +18°C° 1.1 mm 1 mps 750 mmHg 87%
    08:00 +18°C° 1.1 mm 1 mps 750 mmHg 86%
    09:00 +18°C° 1.1 mm 1 mps 750 mmHg 86%
    10:00 +19°C° 0.2 mm 1 mps 749 mmHg 85%
    11:00 +19°C° 0.2 mm 1 mps 749 mmHg 83%
    12:00 +20°C° 0.2 mm 1 mps 749 mmHg 82%
    13:00 +20°C° 0.1 mm 1 mps 748 mmHg 81%
    14:00 +21°C° 0.1 mm 1 mps 748 mmHg 80%
    15:00 +22°C° 0.1 mm 1 mps 747 mmHg 79%
    16:00 +22°C° 0 mm 1 mps 747 mmHg 80%
    17:00 +20°C° 0 mm 0 mps 747 mmHg 81%
    18:00 +20°C° 0 mm 0 mps 747 mmHg 82%
    19:00 +20°C° 0.1 mm 0 mps 747 mmHg 83%
    20:00 +19°C° 0.1 mm 0 mps 748 mmHg 85%
    21:00 +19°C° 0.1 mm 0 mps 748 mmHg 87%
    22:00 +18°C° 0.1 mm 0 mps 748 mmHg 89%
    23:00 +18°C° 0.1 mm 0 mps 747 mmHg 90%

    26 April, Friday

    Time Temperature Precipitation Wind Pressure Humidity
    00:00 +20°C° 0.1 mm 1 mps 747 mmHg 92%
    01:00 +20°C° 0.1 mm 1 mps 747 mmHg 92%
    02:00 +20°C° 0.1 mm 1 mps 746 mmHg 93%
    03:00 +18°C° 0.1 mm 0 mps 746 mmHg 93%
    04:00 +20°C° 0.1 mm 1 mps 746 mmHg 92%
    05:00 +20°C° 0.1 mm 1 mps 747 mmHg 91%
    06:00 +20°C° 0.1 mm 1 mps 747 mmHg 90%
    07:00 +19°C° 0.1 mm 2 mps 747 mmHg 83%
    08:00 +20°C° 0.1 mm 2 mps 747 mmHg 76%
    09:00 +21°C° 0.1 mm 2 mps 748 mmHg 70%
    10:00 +21°C° 0 mm 3 mps 748 mmHg 66%
    11:00 +22°C° 0 mm 4 mps 748 mmHg 62%
    12:00 +22°C° 0 mm 5 mps 747 mmHg 58%
    13:00 +22°C° 0 mm 5 mps 747 mmHg 54%
    14:00 +23°C° 0 mm 5 mps 747 mmHg 51%
    15:00 +23°C° 0 mm 5 mps 747 mmHg 48%
    16:00 +22°C° 0 mm 5 mps 748 mmHg 51%
    17:00 +20°C° 0 mm 4 mps 748 mmHg 55%
    18:00 +19°C° 0 mm 4 mps 748 mmHg 59%
    19:00 +18°C° 0 mm 4 mps 749 mmHg 61%
    20:00 +17°C° 0 mm 3 mps 749 mmHg 63%
    21:00 +16°C° 0 mm 3 mps 749 mmHg 66%
    22:00 +14°C° 0 mm 3 mps 749 mmHg 67%
    23:00 +13°C° 0 mm 3 mps 749 mmHg 69%
    Show more